This demonstration page uses our WeatherBlox Daily Observations layout. Learn more.

Left ArrowRight Arrow

Hourly Observations for April 21, 2017

Temp ( °F °C ) Dew Point ( °F °C ) Humidity (%) Winds ( mph kmh ) Pressure ( in mb ) Visibility ( mi km ) Precip ( " mm )
12:53 am 00:53 Clear 51 10.6 44 6.7 77 77 NNW 5 7 30.27 1025 10 16 0.00 0.00
1:53 am 01:53 Clear 49 9.4 44 6.7 83 83 NNW 3 6 30.27 1025 10 16 0.00 0.00
2:53 am 02:53 Clear 49 9.4 43 6.1 80 80 NW 5 7 30.24 1024 10 16 0.00 0.00
3:53 am 03:53 Clear 50 10 41 5 71 71 NNW 6 9 30.23 1024 10 16 0.00 0.00
4:53 am 04:53 Clear 49 9.4 40 4.4 71 71 NW 6 9 30.22 1023 10 16 0.00 0.00
5:53 am 05:53 Clear 50 10 39 3.9 66 66 NW 6 9 30.20 1023 10 16 0.00 0.00
6:53 am 06:53 Sunny 50 10 39 3.9 66 66 NW 5 7 30.19 1022 10 16 0.00 0.00
7:53 am 07:53 Sunny 54 12.2 40 4.4 59 59 NW 5 7 30.19 1022 10 16 0.00 0.00
8:53 am 08:53 Sunny 61 16.1 38 3.3 43 43 N 10 17 30.17 1022 10 16 0.00 0.00
9:53 am 09:53 Sunny 64 17.8 37 2.8 37 37 N 10 17 30.15 1021 10 16 0.00 0.00
10:53 am 10:53 Sunny 68 20 38 3.3 33 33 N 10 17 30.14 1021 10 16 0.00 0.00
11:53 am 11:53 Sunny 72 22.2 39 3.9 30 30 N 8 13 30.11 1020 10 16 0.00 0.00
12:53 pm 12:53 Sunny 74 23.3 39 3.9 28 28 undefined N/A 30.08 1019 10 16 0.00 0.00
1:53 pm 13:53 Sunny 76 24.4 40 4.4 27 27 ENE 6 9 30.05 1018 10 16 0.00 0.00
2:53 pm 14:53 Sunny 78 25.6 37 2.8 23 23 VRB 3 6 30.01 1016 10 16 0.00 0.00
3:53 pm 15:53 Sunny 80 26.7 41 5 25 25 ENE 5 7 29.97 1015 10 16 0.00 0.00
4:53 pm 16:53 Sunny 81 27.2 37 2.8 21 21 VRB 3 6 29.95 1014 10 16 0.00 0.00
5:53 pm 17:53 Sunny 77 25 44 6.7 31 31 S 3 6 29.93 1014 10 16 0.00 0.00
6:53 pm 18:53 Sunny 75 23.9 49 9.4 40 40 SSE 6 9 29.91 1013 10 16 0.00 0.00
7:53 pm 19:53 Sunny 70 21.1 46 7.8 42 42 WSW 6 9 29.90 1013 10 16 0.00 0.00
8:53 pm 20:53 Clear 64 17.8 50 10 60 60 ESE 3 6 29.91 1013 10 16 0.00 0.00
9:53 pm 21:53 Clear 61 16.1 50 10 67 67 NNE 3 6 29.91 1013 10 16 0.00 0.00
10:53 pm 22:53 Clear 57 13.9 50 10 78 78 NNE 3 6 29.92 1013 10 16 0.00 0.00
11:53 pm 23:53 Clear 54 12.2 50 10 87 87 N 3 6 29.91 1013 10 16 0.00 0.00

Powered by AerisWeather